Location: Grasslands National Park East Block
(49.0708°N, 106.5295°W)
Time: 17:54:53
(UTC-06:00)

Vanguard 1 Rocket - Pass Details

Date: 23 September 2019
Orbit: 650 x 4226 km, 34.3° (Epoch: 20 October)

Event Time Altitude Azimuth Distance (km) Brightness Sun altitude
Rises 14:45:01 0° 186° (S) 8,336 13.1 35.6°
Reaches altitude 10° 14:54:06 10° 171° (S) 7,422 12.7 34.8°
Maximum altitude 15:08:09 18° 137° (SE) 6,380 11.9 33.4°
Drops below altitude 10° 15:20:07 10° 103° (ESE) 6,325 11.5 32.1°
Sets 15:26:31 0° 87° (E) 6,757 11.5 31.3°
